Location: Asheville, NC
(35.6000°N, 82.5500°W)
Time: 07:55:54
(UTC-04:00)

Vanguard 1 Rocket - Pass Details

Date: 10 February 2018
Orbit: 652 x 4225 km, 34.3° (Epoch: 20 May)

Event Time Altitude Azimuth Distance (km) Brightness Sun altitude
Rises 00:16:06 0° 222° (SW) 7,434 11.9 -67.8°
Enters shadow 00:16:56 - 222° (SW) 7,309 11.9 -67.9°
Exits shadow 00:59:30 28° 86° (E) 5,469 11.2 -68.5°
Drops below altitude 10° 01:06:43 10° 77° (ENE) 6,406 11.7 -68.2°
Sets 01:10:58 0° 73° (ENE) 7,066 12.1 -67.9°
